TimeEST,TemperatureF,Dew PointF,Humidity,Sea Level PressureIn,VisibilityMPH,Wind Direction,Wind SpeedMPH,Gust SpeedMPH,PrecipitationIn,Events,Conditions,WindDirDegrees,DateUTC
12:52 AM,46.9,44.1,90,29.88,10.0,East,4.6,-,0.00,,Overcast,80,2013-02-13 05:52:00
1:52 AM,46.9,45.0,93,29.88,10.0,Calm,Calm,-,N/A,,Overcast,0,2013-02-13 06:52:00
2:52 AM,46.0,44.1,93,29.86,10.0,Calm,Calm,-,0.02,Rain,Light Rain,0,2013-02-13 07:52:00
3:52 AM,46.0,44.1,93,29.84,9.0,Calm,Calm,-,0.00,,Overcast,0,2013-02-13 08:52:00
4:52 AM,46.0,41.0,83,29.82,10.0,NE,4.6,-,0.00,,Overcast,40,2013-02-13 09:52:00
5:52 AM,45.0,42.1,90,29.81,10.0,North,4.6,-,0.00,,Overcast,360,2013-02-13 10:52:00
6:28 AM,44.6,42.8,93,29.81,10.0,NE,4.6,-,N/A,,Overcast,40,2013-02-13 11:28:00
6:45 AM,44.6,42.8,93,29.81,7.0,NNE,3.5,-,N/A,,Overcast,30,2013-02-13 11:45:00
6:52 AM,44.1,42.1,93,29.81,6.0,NNE,4.6,-,N/A,,Overcast,30,2013-02-13 11:52:00
7:31 AM,44.6,42.8,93,29.81,5.0,NE,4.6,-,N/A,,Overcast,50,2013-02-13 12:31:00
7:35 AM,44.6,42.8,93,29.81,2.5,NNE,3.5,-,N/A,,Overcast,30,2013-02-13 12:35:00
7:42 AM,44.6,42.8,93,29.80,2.5,NNE,4.6,-,N/A,,Overcast,30,2013-02-13 12:42:00
7:52 AM,44.1,43.0,96,29.80,2.5,Variable,4.6,-,N/A,,Overcast,0,2013-02-13 12:52:00
8:38 AM,44.6,42.8,93,29.80,2.5,NNE,3.5,-,N/A,,Overcast,30,2013-02-13 13:38:00
8:52 AM,44.1,43.0,96,29.80,2.5,North,3.5,-,N/A,,Overcast,350,2013-02-13 13:52:00
9:18 AM,44.6,42.8,93,29.82,1.0,Calm,Calm,-,0.00,Rain,Light Rain,0,2013-02-13 14:18:00
9:52 AM,45.0,44.1,97,29.78,1.0,East,4.6,-,0.01,Rain,Light Rain,90,2013-02-13 14:52:00
10:11 AM,44.6,44.6,100,29.77,2.5,ESE,6.9,-,0.01,,Overcast,110,2013-02-13 15:11:00
10:37 AM,44.6,44.6,100,29.76,2.5,SE,6.9,-,0.01,,Overcast,140,2013-02-13 15:37:00
10:52 AM,45.0,44.1,97,29.77,2.5,SE,5.8,-,0.01,,Overcast,130,2013-02-13 15:52:00
11:33 AM,46.4,44.6,93,29.75,1.5,ESE,5.8,-,N/A,,Overcast,110,2013-02-13 16:33:00
11:52 AM,46.0,44.1,93,29.73,1.5,SE,9.2,-,0.01,,Overcast,130,2013-02-13 16:52:00
12:11 PM,46.4,44.6,93,29.71,1.5,SE,9.2,-,N/A,,Overcast,140,2013-02-13 17:11:00
12:20 PM,46.4,44.6,93,29.71,1.5,ESE,8.1,-,N/A,,Overcast,120,2013-02-13 17:20:00
12:29 PM,46.4,44.6,93,29.71,1.5,ESE,5.8,-,N/A,,Overcast,120,2013-02-13 17:29:00
12:47 PM,46.4,44.6,93,29.69,1.5,Calm,Calm,-,N/A,,Overcast,0,2013-02-13 17:47:00
12:52 PM,46.0,44.1,93,29.69,1.5,Calm,Calm,-,N/A,,Overcast,0,2013-02-13 17:52:00
1:37 PM,46.4,44.6,93,29.67,1.2,South,4.6,-,0.01,Rain,Light Rain,180,2013-02-13 18:37:00
1:52 PM,46.0,45.0,96,29.67,1.5,SSW,4.6,-,0.01,,Overcast,200,2013-02-13 18:52:00
2:34 PM,46.4,46.4,100,29.68,1.5,SW,8.1,-,N/A,,Overcast,230,2013-02-13 19:34:00
2:44 PM,46.4,46.4,100,29.68,8.0,SW,6.9,-,N/A,,Overcast,230,2013-02-13 19:44:00
2:52 PM,46.9,46.0,97,29.67,8.0,SW,8.1,-,N/A,,Overcast,220,2013-02-13 19:52:00
3:52 PM,46.9,45.0,93,29.69,8.0,WSW,9.2,-,N/A,,Overcast,240,2013-02-13 20:52:00
4:52 PM,48.0,45.0,89,29.69,10.0,SW,8.1,17.3,0.00,,Overcast,230,2013-02-13 21:52:00
5:52 PM,48.0,45.0,89,29.72,10.0,WSW,5.8,-,N/A,,Overcast,250,2013-02-13 22:52:00
6:13 PM,48.2,44.6,87,29.73,10.0,WSW,8.1,-,N/A,,Overcast,250,2013-02-13 23:13:00
6:52 PM,48.0,45.0,89,29.74,10.0,WSW,5.8,-,N/A,,Mostly Cloudy,240,2013-02-13 23:52:00
7:52 PM,46.9,44.1,90,29.77,10.0,NW,3.5,-,N/A,,Mostly Cloudy,320,2013-02-14 00:52:00
8:52 PM,46.0,39.9,79,29.80,10.0,NW,13.8,23.0,N/A,,Scattered Clouds,320,2013-02-14 01:52:00
9:52 PM,44.1,34.0,68,29.83,10.0,NW,9.2,-,N/A,,Partly Cloudy,310,2013-02-14 02:52:00
10:52 PM,41.0,33.1,73,29.85,10.0,NNW,4.6,-,N/A,,Partly Cloudy,330,2013-02-14 03:52:00
11:52 PM,37.9,33.1,83,29.88,10.0,Calm,Calm,-,N/A,,Clear,0,2013-02-14 04:52:00